Location: El Águila
(10.4167°N, 66.7167°W)
Time: 02:49:40
(UTC+00:00)

CZ-3C R/B - Visible Passes

Search period start: 17 April 2024 00:00
Search period end: 27 April 2024 00:00
Orbit: 275 x 31710 km, 20.1° (Epoch: 16 April)

Date Brightness Start Highest point End Pass type
(mag) Time Alt. Az. Time Alt. Az. Time Alt. Az.
18 Apr 6.3 05:47:33 19° SE 05:50:03 19° SE 13:52:39 10° ENE visible
18 Apr 3.8 23:41:08 10° W 23:48:33 19° SW 23:51:31 10° S visible
19 Apr 6.4 09:33:44 10° SW 12:59:55 90° NNE 18:07:39 10° E visible
20 Apr 10.8 09:22:32 10° ENE 10:18:46 12° ENE 11:01:24 10° ENE visible
21 Apr 6.0 07:46:31 27° SSW 08:11:53 50° SE 16:12:26 10° ENE visible
23 Apr 6.2 06:00:13 25° SSE 06:04:54 26° SE 14:09:43 10° ENE visible
24 Apr 6.2 09:46:12 10° SW 12:16:36 87° SW 18:19:54 10° E visible
25 Apr 10.3 08:25:21 10° E 10:27:35 18° ENE 11:39:29 10° ENE visible
26 Apr 6.0 07:57:05 28° SSW 08:27:27 58° SE 16:24:05 10° E visible
